Temperature
30 31 31 31 31 30 30 30 30 30 30 30 29 29 27 26 25 24 24 23 22 22 21 20 20 19 19 19 19 18 18 18 17 17 16 16 16 16 16 16 15 15 15 15
29 30 30 30 30 30 30 30 31 30 30 30 29 27 26 25 25 24 23 23 22 21 20 20 20 19 19 19 19 18 18 18 17 17 16 16 16 16 16 15 15 15 15 15
29 29 29 29 30 30 30 30 30 30 30 29 28 27 26 25 24 24 23 22 21 21 20 20 20 19 19 19 18 18 18 17 17 17 16 16 16 16 15 15 15 15 15 15
28 28 27 29 30 30 30 30 30 29 29 28 27 26 24 24 23 23 22 22 21 21 20 20 20 20 19 19 18 18 17 17 17 16 16 16 16 16 16 15 15 15 15 14
28 27 28 28 28 29 28 28 28 28 28 27 26 25 25 23 22 22 22 21 21 21 21 20 20 19 19 18 18 17 17 17 17 16 16 16 15 15 15 15 15 15 14 14
27 26 27 28 28 27 28 27 27 27 26 26 26 27 26 23 22 22 21 20 20 20 20 19 19 19 18 18 18 17 17 16 16 16 16 15 15 15 15 15 15 14 14 14
26 26 28 27 26 27 26 26 25 25 24 24 25 25 23 22 21 21 20 20 20 19 19 19 18 18 18 18 17 17 16 16 16 16 16 15 15 15 15 15 14 14 14 14
26 26 26 25 26 26 25 24 23 23 23 23 23 23 22 21 20 20 20 19 19 19 18 18 18 18 17 17 17 16 16 16 16 16 15 15 15 15 15 15 14 14 14 14
26 25 24 23 23 23 22 22 22 22 22 22 22 22 21 20 20 19 19 19 18 18 18 17 17 17 17 17 16 16 16 16 15 15 15 15 15 15 15 14 14 14 14 14
24 24 23 22 22 22 21 21 21 21 21 21 21 21 20 20 19 19 19 18 18 18 17 17 17 17 16 16 16 16 16 15 15 15 15 15 15 15 14 14 14 14 14 13
23 23 23 22 21 21 21 21 21 21 21 21 20 20 20 19 19 19 18 18 18 18 17 17 16 16 16 16 16 16 15 15 15 15 15 15 15 14 14 14 13 13 13 13
23 22 22 22 20 20 20 20 20 20 20 20 20 19 19 19 18 18 18 17 17 17 17 17 16 16 16 16 15 15 15 15 15 15 15 15 14 14 14 14 13 13 13 13
20 20 20 20 19 19 19 20 20 19 19 19 19 19 18 18 18 17 17 17 17 17 16 16 16 16 16 15 15 15 15 15 15 15 15 14 14 14 14 13 13 13 13 12
18 18 19 19 19 19 19 19 19 19 18 18 18 18 18 17 17 17 17 17 16 16 16 16 16 16 15 15 15 14 14 14 14 14 14 14 14 14 14 14 13 13 13 12
17 18 18 18 18 18 18 18 18 18 18 17 17 17 17 17 16 16 16 16 16 16 16 15 15 15 15 15 14 14 14 14 14 14 14 14 14 14 13 13 13 13 13 12
17 17 17 17 17 17 18 18 18 17 17 17 16 17 16 16 16 15 15 16 16 16 15 15 15 15 15 14 14 14 14 14 13 13 14 13 13 13 13 13 13 12 12 12
17 17 17 17 17 17 17 17 17 16 16 16 16 16 16 16 15 15 15 15 15 15 15 15 14 14 14 14 14 14 14 13 13 13 13 13 13 13 13 13 12 12 12 12
16 16 16 16 16 16 16 16 16 16 15 15 15 15 15 15 15 15 15 15 15 15 14 14 14 14 14 13 13 13 14 13 13 13 13 13 13 12 12 12 12 12 11 11
15 15 15 15 15 15 15 15 15 15 15 15 15 15 15 15 15 15 15 15 15 14 14 14 14 13 13 13 13 13 13 13 13 13 13 12 12 12 12 12 12 12 11 11
15 15 15 15 15 15 15 15 14 14 14 14 15 15 15 15 15 15 14 14 14 14 14 13 13 13 13 13 13 13 13 13 13 13 12 12 12 12 12 12 11 11 11 11
14 14 14 14 14 14 14 14 14 14 14 14 14 14 14 14 14 14 14 14 14 13 13 13 13 13 13 13 13 13 13 13 12 12 12 12 12 11 11 11 11 11 10 10
13 14 14 14 14 14 14 14 14 14 14 14 14 14 14 14 14 14 14 14 13 13 13 13 13 13 12 12 12 12 12 12 12 12 12 11 11 11 11 11 10 10 10 10
13 13 13 13 13 13 13 13 13 13 13 13 13 13 13 13 14 13 13 13 13 13 13 12 12 12 12 12 12 12 12 12 11 11 11 11 11 11 10 10 10 10 9 9
12 12 12 12 13 13 13 13 13 13 13 13 13 13 13 13 13 13 13 13 13 12 12 12 12 12 12 11 11 11 11 11 11 11 11 11 11 10 10 10 10 9 9 9
12 12 12 12 12 12 12 12 12 12 12 13 13 13 13 13 13 13 12 12 12 12 12 12 12 11 11 11 11 11 11 11 11 11 10 10 10 10 10 9 9 9 9 8
12 12 12 12 12 12 12 12 12 12 12 12 12 12 12 12 12 12 12 12 12 11 11 11 11 11 11 11 10 10 10 10 10 10 10 10 10 10 9 9 9 8 8 8
12 12 12 12 12 12 12 12 12 12 12 12 12 12 12 12 12 12 11 11 11 11 11 11 11 11 10 10 10 10 10 10 10 10 9 9 9 9 9 8 8 8 8 8
Wind_Speed
11 8 8 10 11 11 13 12 11 9 7 5 4 5 6 7 7 7 7 7 7 7 7 7 7 7 7 6 6 6 6 5 4 4 3 3 3 2 2 1 1 1 1 1
12 11 10 12 12 13 13 13 12 10 8 2 3 5 6 6 7 7 7 7 7 7 7 7 7 7 7 7 6 6 6 5 4 4 4 3 3 2 2 2 1 1 1 1
12 10 11 15 12 12 12 11 11 11 6 4 5 6 6 6 6 7 7 7 7 7 6 7 7 7 7 7 6 6 5 5 5 4 4 4 3 2 2 2 2 1 1 1
9 9 15 9 4 7 10 9 7 5 2 3 4 4 5 4 5 6 6 6 6 6 6 6 7 7 6 7 6 6 5 5 5 4 4 4 3 3 2 2 2 2 1 1
10 13 13 7 5 5 8 7 4 4 4 3 4 6 5 4 4 4 5 5 5 5 6 6 6 6 7 7 6 6 5 5 5 4 4 4 4 3 3 2 2 2 2 1
10 12 13 5 1 3 6 8 1 3 4 4 5 7 4 4 4 4 4 4 4 5 5 6 6 6 6 6 6 6 5 5 4 4 4 3 3 3 2 2 3 3 2 2
13 12 8 1 1 4 8 2 2 1 3 4 5 2 3 4 4 4 4 4 5 5 5 6 6 6 6 6 5 5 5 4 4 4 4 3 2 2 2 2 2 2 2 2
11 13 7 3 1 2 2 3 1 0 2 2 2 2 4 4 4 5 5 5 5 5 5 5 5 6 6 5 4 4 5 4 4 4 3 3 2 2 2 2 3 3 2 2
5 3 3 3 2 2 2 2 1 1 0 1 2 3 4 5 4 4 5 5 5 5 5 5 5 5 5 4 4 4 5 4 4 3 3 2 3 2 3 3 2 2 2 2
3 3 1 1 1 1 2 2 1 0 0 1 2 3 4 4 4 4 4 4 4 5 5 4 4 4 4 5 5 4 4 4 4 3 3 3 2 2 2 2 2 1 2 2
5 3 2 1 1 1 1 1 1 1 0 1 1 2 3 4 4 4 4 4 4 4 5 5 5 4 4 5 5 4 4 3 3 3 2 2 2 1 1 1 1 2 2 2
4 2 3 2 2 2 2 1 1 0 0 0 1 2 3 3 4 4 4 4 4 4 4 4 5 5 4 4 4 4 3 3 3 2 2 2 2 2 2 2 3 3 2 3
3 4 4 4 3 3 2 2 1 1 0 1 1 2 3 3 3 3 3 3 4 4 5 5 5 4 4 3 3 3 3 2 2 2 2 2 2 2 2 3 5 6 6 4
3 4 4 4 3 2 2 1 1 1 1 1 1 2 3 4 3 3 3 3 4 4 4 4 4 4 3 3 3 3 3 3 3 2 2 2 2 2 2 2 2 3 5 8
3 4 4 4 3 2 2 2 2 2 1 1 1 2 3 3 3 2 2 3 4 4 4 3 3 3 3 3 3 4 3 2 2 2 2 2 2 2 2 3 3 3 2 3
4 3 3 3 2 2 2 2 2 2 1 1 1 1 2 2 3 3 3 4 5 4 3 3 3 2 3 3 3 3 2 1 3 3 3 2 3 3 2 2 3 3 3 2
4 3 3 3 2 2 1 1 1 1 2 2 1 1 2 2 2 2 3 3 4 4 3 3 3 3 3 3 3 3 2 3 4 4 3 3 3 3 3 3 3 3 3 1
4 3 3 3 2 1 1 1 0 1 2 2 1 1 2 2 2 2 3 3 3 3 3 3 3 3 3 3 3 3 3 3 3 3 3 2 2 3 3 3 3 3 3 1
2 2 2 3 3 2 2 1 1 1 2 2 2 2 2 2 2 2 3 3 4 5 4 3 3 4 3 3 3 4 3 3 3 3 2 2 3 3 3 3 3 3 3 2
0 2 3 3 3 3 2 2 2 2 2 2 2 2 2 2 2 2 3 4 4 2 2 3 4 4 3 2 3 4 3 3 3 3 2 3 3 3 3 3 3 3 3 3
1 1 2 2 2 2 2 2 2 2 2 2 3 3 3 2 2 3 3 3 2 1 2 3 3 2 2 1 4 3 3 3 3 3 3 3 3 3 3 3 3 3 3 4
0 0 1 2 2 2 2 2 2 2 2 3 3 3 3 3 3 3 3 2 1 2 3 3 3 1 1 2 3 3 3 3 3 3 2 3 3 3 3 3 3 3 3 3
1 1 1 2 2 2 2 2 2 2 3 3 3 3 3 3 3 3 3 1 2 2 3 2 2 4 3 4 3 3 3 3 3 3 3 2 2 3 3 3 3 3 3 3
1 1 2 2 2 2 3 3 2 2 3 3 3 2 3 3 2 2 2 1 1 2 2 2 5 4 5 3 2 2 2 2 3 3 2 1 2 2 2 3 3 3 2 3
2 1 1 2 2 2 2 2 2 2 2 2 2 1 2 2 1 1 1 1 2 3 2 3 5 5 4 2 1 1 1 1 2 2 2 2 2 2 2 2 2 3 3 2
2 2 2 2 2 2 2 2 2 2 2 1 1 1 0 1 1 1 1 2 3 3 2 2 3 4 3 2 2 1 1 1 1 2 2 2 2 2 1 1 2 2 2 2
3 2 2 2 2 2 2 2 2 2 1 1 1 1 1 1 1 1 2 2 2 2 2 2 3 3 2 2 2 1 1 1 2 2 2 2 2 1 1 1 2 2 2 2
Wind_Direction
252 261 251 243 241 231 240 256 267 273 265 248 206 178 172 171 169 168 169 174 174 173 168 171 169 168 170 174 174 172 172 177 175 179 183 185 182 188 195 208 213 215 233 252
241 243 244 248 247 242 242 250 256 259 259 236 169 163 164 173 178 179 177 175 172 170 166 169 169 170 170 174 172 170 172 175 172 174 179 183 187 190 194 203 220 213 218 248
243 235 243 244 243 242 242 246 254 256 251 170 174 174 176 181 184 186 181 178 176 175 175 174 172 170 172 174 173 173 176 175 171 173 178 187 189 182 200 218 225 232 238 254
246 236 245 250 247 249 248 247 250 253 239 201 189 172 169 182 187 187 183 182 180 179 178 177 174 170 169 168 172 176 179 180 179 182 181 181 187 192 205 220 229 246 257 275
244 244 245 230 227 236 240 240 258 248 228 197 175 172 167 165 176 188 186 184 184 182 176 170 172 169 167 169 170 175 178 184 182 188 187 187 191 200 208 217 224 227 224 232
239 250 253 233 200 243 244 232 263 249 217 196 192 215 171 148 163 165 161 162 164 164 160 160 166 166 170 172 174 178 181 183 178 187 191 196 199 207 208 213 223 228 203 204
238 246 246 3 287 204 228 241 15 262 212 210 213 268 120 134 138 141 148 149 148 153 158 158 162 167 173 174 179 180 175 174 176 180 185 186 191 199 209 216 218 229 217 205
238 244 236 62 176 228 355 24 26 2 206 214 187 135 134 134 136 137 143 144 148 153 155 155 162 169 169 172 171 169 169 169 170 181 190 175 183 198 211 221 214 216 218 230
253 259 65 65 68 41 22 3 358 333 272 177 167 156 147 142 140 138 139 144 149 152 152 157 166 174 172 166 164 167 169 172 176 182 188 189 193 200 214 217 234 233 238 247
239 200 140 91 64 20 6 357 349 353 160 192 183 167 151 147 143 141 139 143 147 151 154 156 163 173 171 163 167 172 173 179 183 191 195 187 209 215 230 242 253 250 257 260
236 231 229 177 341 330 336 349 21 49 132 205 186 179 162 154 149 145 144 146 150 156 160 162 162 165 165 163 171 181 184 190 198 197 192 190 188 195 232 226 253 263 263 260
250 234 262 270 333 322 307 315 321 300 212 186 175 178 166 155 148 147 149 149 153 159 162 161 161 160 160 166 176 190 197 202 209 204 196 208 191 185 150 201 158 197 268 287
287 302 290 286 295 308 301 299 299 267 211 171 145 163 161 149 149 148 150 156 161 164 161 159 161 160 163 170 186 202 209 206 220 222 210 217 218 233 219 193 193 193 197 214
287 286 274 273 280 294 285 257 209 166 148 148 146 146 152 149 146 149 152 158 162 159 157 158 160 161 165 171 188 208 212 192 217 231 234 235 237 251 256 261 248 231 198 190
268 271 270 276 269 257 230 202 191 174 151 157 162 162 154 152 156 160 152 150 154 163 162 161 163 166 175 185 198 214 220 220 236 248 248 252 262 265 263 265 274 274 273 186
274 260 245 235 220 215 202 196 202 201 198 204 203 176 163 161 159 162 169 164 169 176 176 188 199 193 185 193 209 225 228 207 248 251 251 255 263 270 272 271 279 284 280 282
254 242 227 222 210 208 214 223 210 219 229 231 226 194 165 161 162 169 183 180 179 184 193 203 211 204 195 201 215 229 233 213 219 245 254 262 269 271 277 281 288 291 290 303
250 257 256 234 223 221 228 260 279 259 254 250 228 194 188 193 196 197 199 194 195 208 216 213 211 212 211 218 233 245 246 242 239 252 254 258 275 277 276 279 286 291 299 285
236 229 230 218 215 220 232 237 252 257 240 231 222 221 231 231 218 215 212 203 208 215 217 198 195 224 227 234 245 242 249 250 247 247 249 234 253 268 274 280 284 288 287 290
220 206 197 196 199 210 217 220 229 226 230 232 238 237 243 240 226 224 228 231 238 236 191 183 199 219 235 240 258 254 245 243 248 247 248 254 259 271 277 281 282 281 281 284
189 180 184 193 200 207 222 231 227 225 236 241 236 237 239 236 224 219 226 234 228 183 178 183 205 217 234 237 243 256 250 245 250 250 249 255 261 272 284 293 296 297 293 289
53 163 201 208 216 236 242 241 236 235 235 232 237 240 239 238 237 235 237 252 218 159 201 214 208 139 179 245 241 254 255 259 265 264 259 262 264 268 280 288 292 297 297 296
344 307 277 249 249 260 268 264 251 245 237 234 235 235 241 254 249 243 244 241 218 192 226 227 137 135 195 225 233 242 254 259 264 262 257 261 272 277 282 283 291 300 301 297
302 309 291 274 265 256 262 272 271 260 245 238 234 235 245 242 239 243 251 161 166 194 237 128 136 165 222 228 234 244 260 265 267 269 275 272 273 281 292 295 298 304 306 306
277 263 253 252 249 254 258 261 256 240 236 230 229 232 244 240 237 248 225 184 170 190 194 149 162 192 220 237 243 256 266 287 290 280 269 273 276 275 286 297 305 305 307 310
268 266 267 264 274 274 264 258 253 241 233 227 236 231 204 146 155 172 184 175 172 186 189 170 171 194 210 221 235 243 256 253 262 268 279 276 275 281 287 301 302 302 307 316
258 251 244 260 258 259 266 267 267 255 236 220 231 216 179 160 157 167 185 186 180 186 188 186 185 193 201 204 206 213 223 232 245 260 270 268 270 281 291 283 292 305 311 315
Height
1471 1469 1470 1473 1474 1475 1477 1476 1479 1477 1476 1476 1478 1483 1488 1491 1494 1496 1498 1501 1503 1505 1507 1508 1510 1511 1513 1514 1515 1516 1517 1518 1519 1519 1520 1520 1520 1519 1519 1519 1519 1518 1518 1517
1476 1471 1471 1474 1471 1471 1473 1472 1472 1473 1475 1473 1479 1484 1488 1491 1493 1495 1497 1499 1501 1503 1505 1506 1508 1509 1510 1512 1513 1514 1515 1516 1517 1517 1517 1517 1518 1518 1517 1517 1517 1516 1516 1516
1477 1472 1474 1478 1469 1469 1470 1468 1470 1473 1472 1475 1480 1484 1487 1490 1492 1494 1496 1498 1500 1501 1502 1504 1505 1506 1508 1510 1511 1512 1513 1514 1515 1515 1515 1516 1516 1516 1515 1515 1515 1515 1514 1514
1475 1480 1491 1470 1464 1465 1467 1467 1467 1469 1473 1476 1480 1484 1487 1489 1491 1492 1494 1496 1498 1499 1501 1502 1504 1505 1506 1508 1509 1510 1511 1511 1512 1513 1513 1513 1514 1513 1513 1513 1513 1513 1513 1512
1475 1479 1474 1468 1466 1467 1469 1471 1470 1471 1474 1478 1480 1483 1486 1488 1490 1492 1493 1495 1496 1497 1499 1500 1502 1503 1504 1506 1507 1508 1509 1510 1510 1511 1511 1512 1512 1511 1511 1511 1511 1511 1510 1510
1476 1481 1480 1467 1465 1468 1470 1474 1473 1474 1476 1478 1479 1478 1482 1487 1489 1490 1492 1493 1494 1496 1497 1498 1500 1501 1503 1504 1505 1506 1507 1508 1508 1509 1509 1510 1510 1509 1509 1509 1509 1509 1508 1507
1473 1475 1465 1466 1468 1469 1477 1476 1476 1476 1477 1478 1479 1479 1483 1486 1488 1489 1490 1492 1493 1494 1496 1496 1498 1499 1501 1502 1503 1504 1505 1506 1506 1506 1507 1508 1508 1507 1506 1506 1506 1506 1505 1504
1471 1475 1472 1469 1468 1471 1474 1476 1476 1477 1478 1479 1480 1482 1483 1485 1487 1488 1489 1490 1492 1493 1494 1495 1496 1497 1499 1500 1501 1502 1503 1503 1504 1504 1505 1505 1505 1504 1504 1504 1504 1503 1503 1502
1467 1470 1472 1472 1473 1476 1477 1477 1477 1478 1479 1480 1481 1482 1483 1485 1486 1487 1488 1489 1491 1492 1493 1494 1495 1496 1497 1498 1499 1500 1500 1501 1502 1503 1503 1503 1502 1502 1502 1501 1502 1501 1501 1501
1470 1469 1472 1474 1475 1476 1477 1478 1478 1479 1479 1480 1481 1482 1483 1484 1485 1486 1487 1489 1489 1490 1491 1492 1493 1494 1495 1496 1497 1498 1498 1499 1500 1500 1500 1500 1500 1500 1500 1499 1499 1499 1499 1499
1471 1471 1473 1474 1476 1476 1477 1477 1478 1478 1479 1479 1480 1481 1482 1483 1484 1485 1486 1487 1488 1489 1490 1491 1492 1493 1494 1494 1495 1496 1496 1497 1498 1498 1498 1498 1498 1497 1497 1497 1497 1497 1497 1496
1469 1472 1473 1475 1476 1476 1476 1477 1477 1477 1478 1479 1479 1480 1481 1482 1483 1484 1485 1486 1487 1488 1489 1490 1491 1491 1492 1493 1493 1494 1495 1495 1495 1496 1496 1496 1495 1495 1494 1494 1493 1493 1493 1493
1473 1473 1474 1475 1476 1476 1476 1476 1476 1477 1477 1478 1478 1479 1480 1481 1482 1483 1484 1485 1485 1486 1488 1488 1489 1490 1491 1491 1492 1492 1493 1493 1493 1493 1493 1493 1493 1492 1492 1491 1490 1490 1490 1489
1474 1474 1474 1474 1474 1475 1475 1475 1476 1476 1477 1477 1477 1478 1479 1479 1480 1481 1482 1483 1484 1485 1486 1487 1487 1488 1489 1489 1490 1491 1491 1491 1491 1491 1491 1491 1490 1490 1489 1489 1489 1487 1487 1486
1473 1473 1473 1473 1473 1474 1474 1474 1475 1475 1476 1476 1477 1477 1478 1478 1479 1479 1480 1481 1482 1484 1485 1486 1486 1486 1486 1487 1488 1489 1489 1489 1489 1489 1489 1488 1488 1487 1487 1486 1486 1485 1485 1484
1471 1471 1471 1472 1472 1473 1473 1473 1474 1475 1475 1476 1476 1476 1476 1477 1477 1478 1479 1479 1481 1482 1482 1483 1484 1484 1484 1484 1485 1486 1486 1486 1486 1487 1486 1486 1485 1485 1484 1483 1483 1482 1482 1481
1469 1469 1469 1470 1471 1471 1472 1472 1473 1473 1474 1474 1475 1475 1475 1475 1476 1476 1477 1478 1479 1480 1480 1480 1481 1481 1481 1482 1483 1483 1484 1484 1483 1483 1484 1483 1482 1482 1481 1481 1480 1480 1480 1479
1467 1467 1468 1468 1469 1470 1471 1471 1472 1472 1472 1473 1473 1473 1474 1474 1474 1474 1475 1476 1476 1478 1478 1478 1478 1479 1479 1480 1480 1481 1482 1481 1481 1481 1481 1480 1479 1479 1479 1478 1478 1477 1477 1476
1465 1465 1466 1467 1467 1468 1469 1469 1470 1470 1470 1471 1471 1472 1472 1472 1472 1473 1473 1473 1474 1474 1474 1475 1476 1476 1477 1477 1477 1478 1478 1479 1478 1478 1478 1477 1476 1476 1476 1476 1475 1475 1474 1474
1463 1463 1464 1465 1465 1466 1467 1467 1468 1468 1469 1469 1469 1470 1470 1470 1470 1470 1470 1471 1471 1471 1472 1473 1473 1474 1475 1474 1474 1475 1476 1476 1476 1475 1475 1475 1474 1474 1474 1473 1473 1472 1472 1471
1462 1462 1462 1463 1464 1464 1465 1466 1466 1466 1466 1466 1467 1468 1468 1468 1468 1468 1468 1468 1469 1469 1469 1470 1470 1471 1471 1471 1471 1473 1474 1473 1473 1473 1473 1472 1472 1472 1471 1471 1470 1470 1469 1469
1460 1461 1461 1462 1462 1463 1463 1464 1464 1464 1464 1464 1465 1465 1465 1466 1466 1466 1466 1466 1466 1466 1467 1468 1468 1468 1468 1469 1470 1471 1471 1471 1471 1470 1470 1470 1469 1469 1469 1468 1468 1467 1466 1466
1460 1460 1460 1461 1460 1460 1461 1461 1462 1461 1461 1462 1462 1462 1463 1463 1464 1464 1465 1464 1464 1464 1465 1465 1465 1465 1466 1467 1468 1468 1468 1468 1468 1468 1468 1467 1467 1467 1466 1466 1465 1464 1463 1463
1459 1459 1459 1459 1458 1459 1459 1459 1459 1459 1459 1460 1460 1460 1461 1461 1462 1462 1463 1462 1462 1462 1462 1462 1462 1462 1463 1464 1464 1465 1465 1465 1465 1465 1465 1465 1464 1464 1464 1463 1462 1462 1461 1460
1458 1458 1457 1457 1457 1458 1458 1457 1457 1457 1457 1458 1458 1459 1459 1459 1460 1460 1460 1460 1460 1460 1460 1460 1460 1460 1461 1462 1462 1462 1462 1462 1462 1462 1462 1462 1462 1462 1461 1461 1460 1459 1459 1458
1456 1456 1456 1456 1456 1456 1456 1456 1455 1455 1455 1456 1456 1456 1457 1457 1457 1458 1458 1458 1458 1458 1458 1458 1458 1458 1459 1459 1460 1460 1460 1460 1460 1460 1460 1460 1460 1460 1459 1458 1457 1457 1456 1456
1455 1455 1455 1455 1455 1454 1454 1454 1454 1454 1454 1454 1454 1455 1455 1455 1456 1456 1456 1456 1456 1456 1456 1456 1456 1456 1457 1457 1458 1458 1458 1458 1458 1458 1458 1458 1458 1457 1457 1456 1455 1455 1454 1453